Yakima, WA
on Friday, January 11, 2013

Friday
Previous Day Next Day
Daily Summary
 ActualAverageRecord
Temperature
Mean Temperature °F 30°F  
Max Temperature 40°F 37°F 59°F (2014)
Min Temperature 18°F 23°F -4°F (1949)
Degree Days
Heating Degree Days 36 35  
Month to date heating degree days 359 396  
Since 1 July heating degree days 2573 3059  
Cooling Degree Days 0 0  
Month to date cooling degree days 0 0  
Year to date cooling degree days 0 0  
Moisture
Dew Point 17°F   
Average Humidity 59    
Maximum Humidity 77    
Minimum Humidity 40    
Precipitation
Precipitation 0.00 in 0.04 in 0.70 in (1959)
Month to date precipitation 0.09 0.47  
Year to date precipitation 0.09 0.47  
Snow
Snow 0.00 in 0.20 in 6.10 in (1998)
Month to date snowfall 1.1 2.5  
Year to date snowfall 1.1 2.5  
Since 1 July snowfall 15.3 15.5  
Snow Depth 0.00 in   
Wind
Wind Speed 5 mph   
Max Wind Speed 9 mph   
Max Gust Speed 12 mph   
Visibility 10 miles   
Events     

Key: T is trace of precipitation, MM is missing value
Source: NWS Daily Summary
Time(PST)TemperatureDew PointHumidity Pressure Visibility Wind DirectionWind SpeedGust SpeedPrecipitationEvents Conditions
12:53 AM 25.0°F 17.1°F 72% 30.04 in 10.0 miles Calm Calm - N/A   Clear
1:53 AM 24.1°F 16.0°F 71% 30.06 in 10.0 miles Calm Calm - N/A   Clear
2:53 AM 21.9°F 15.1°F 75% 30.08 in 10.0 miles West 4.6 mph - N/A   Clear
3:53 AM 19.9°F 14.0°F 78% 30.10 in 10.0 miles WNW 6.9 mph - N/A   Clear
4:53 AM 21.0°F 15.1°F 78% 30.12 in 10.0 miles West 4.6 mph - N/A   Clear
5:53 AM 19.9°F 14.0°F 78% 30.14 in 10.0 miles West 5.8 mph - N/A   Clear
6:53 AM 24.1°F 17.1°F 75% 30.17 in 10.0 miles West 5.8 mph - N/A   Mostly Cloudy
7:53 AM 23.0°F 16.0°F 74% 30.20 in 10.0 miles West 4.6 mph - N/A   Mostly Cloudy
8:53 AM 26.1°F 19.0°F 75% 30.23 in 10.0 miles WNW 4.6 mph - N/A   Mostly Cloudy
9:53 AM 28.9°F 19.9°F 69% 30.25 in 10.0 miles West 5.8 mph - N/A   Overcast
10:53 AM 33.1°F 19.0°F 56% 30.26 in 10.0 miles NNE 5.8 mph - N/A   Mostly Cloudy
11:53 AM 35.6°F 17.6°F 48% 30.21 in 10.0 miles Calm Calm - N/A   Mostly Cloudy
12:53 PM 37.9°F 16.0°F 41% 30.24 in 10.0 miles NNW 4.6 mph - N/A   Scattered Clouds
1:53 PM 39.0°F 19.0°F 45% 30.26 in 10.0 miles NNE 3.5 mph - N/A   Scattered Clouds
2:53 PM 39.0°F 19.9°F 46% 30.27 in 10.0 miles Calm Calm - N/A   Scattered Clouds
3:53 PM 37.0°F 19.9°F 50% 30.28 in 10.0 miles South 3.5 mph - N/A   Partly Cloudy
4:53 PM 30.9°F 19.0°F 61% 30.29 in 10.0 miles WSW 3.5 mph - N/A   Clear
5:53 PM 27.0°F 19.0°F 72% 30.30 in 10.0 miles West 9.2 mph - N/A   Clear
6:53 PM 28.0°F 17.1°F 63% 30.31 in 10.0 miles West 8.1 mph - N/A   Clear
7:53 PM 25.0°F 17.1°F 72% 30.31 in 10.0 miles West 5.8 mph - N/A   Clear
8:53 PM 24.1°F 15.1°F 69% 30.31 in 10.0 miles WSW 6.9 mph - N/A   Clear
9:53 PM 21.0°F 15.1°F 78% 30.31 in 10.0 miles West 6.9 mph - N/A   Clear
10:53 PM 21.0°F 14.0°F 74% 30.30 in 10.0 miles West 5.8 mph - N/A   Clear
11:53 PM 18.0°F 12.0°F 78% 30.31 in 10.0 miles West 6.9 mph - N/A   Clear
Moon Phase
Jan. 11 Jan. 18 Jan. 26 Feb. 03 Feb. 10
Sunrise:07:43 AM (PST) Moon Rise:07:18 AM (PST)1/11
Sunset:04:36 PM (PST) Moon Set:05:04 PM (PST)1/11

Copyright © 2014 The Weather Underground, Inc.